Regional Weather Roundup
Issued by NWS Pendleton, OR

Home | Current Version | Previous Version | Text Only | Print | Product List | Glossary On
Versions: 1 2 3 4 5 6 7 8 9 10 11 12 13 14 15 16 17 18 19 20 21 22 23 24 25 26 27 28 29 30 31 32 33 34 35 36 37 38 39 40 41 42 43 44 45 46 47 48 49 50
950
ASUS46 KPDT 200425
RWRPDT
PENDLETON REGIONAL WEATHER ROUNDUP
NATIONAL WEATHER SERVICE PENDLETON OREGON
900 PM PDT SAT AUG 19 2017

NOTE: FAIR INDICATES FEW OR NO CLOUDS BELOW 12,000 FEET WITH NO
SIGNIFICANT WEATHER AND/OR OBSTRUCTIONS TO VISIBILITY.

# INDICATES UNOFFICIAL STATION AND DATA

WAZ520-200510-
EAST SLOPES OF WASHINGTON CASCADES

CITY            SKY/WX      TMP DP  RH  WIND    PRES   REMARKS
#BULLFROG       N/A         65  45  48  W13     N/A
#CLE ELUM HS    N/A         64  44  48  S3      30.04R
#CLE ELUM LAKE  N/A         59  46  62  N2      30.21R
#EASTON DOT     N/A         60  46  60  N2      N/A
#ELK HTS DOT    N/A         64  64  100 W8      N/A
#GLENWOOD       N/A         60  51  72  CALM    30.00R
#NELSON 3SW     N/A         60  42  51  CALM    30.22R
#NILE           N/A         65  45  48  CALM    29.32R
#TEANAWAY 4NE   N/A         63  46  54  CALM    N/A
#TROUT LAKE 1NE N/A         66  50  56  NW2     29.99R
#TROUT LAKE 1E  N/A         67  49  52  CALM    30.09R
$$

WAZ521-200510-
SIMCOE HIGHLANDS

CITY            SKY/WX      TMP DP  RH  WIND    PRES   REMARKS
#BICKLETON HS   N/A         63  49  60  SW5     29.99S
#CENTERVILLE 1SWN/A         68  51  55  W15     29.94R
#GOLDENDALE 1NE N/A         70  33  25  SW2     N/A
#GOLDENDALE 4W  N/A         70  18  14  W7      30.08R
#GOODNOE HILLS  N/A         71  53  53  W10     N/A
#PITT 4SE       N/A         64  51  63  SW7     30.02R
$$

WAZ026-200510-
KITTITAS VALLEY

CITY            SKY/WX      TMP DP  RH  WIND    PRES   REMARKS
ELLENSBURG AP   PTCLDY      67  44  43  NW17    30.06R
#ELLENSBURG CWU N/A         68  43  40  N7      29.93R
#ELLENSBURG 3NE N/A         65  45  48  N9      28.13R
#ELLENSBURG 1E  N/A         68  42  39  NW3     30.02R
#KITTITAS 3S    N/A         64  42  45  CALM    29.97R
#MANASTASH RDG  N/A         64  64  100 N14G24  N/A
#ROCKY CYN DOT  N/A         67  43  42  W16G24  N/A
#RYEGRASS DOT   N/A         63  40  43  S17     N/A
$$

WAZ027-200510-
YAKIMA VALLEY

CITY            SKY/WX      TMP DP  RH  WIND    PRES   REMARKS
SUNNYSIDE AP    N/A         61  51  70  N3      30.01R
YAKIMA AIRPORT  PTCLDY      76  42  30  N12     30.02R
YAKIMA-VAGABOND CLEAR       72  34  25  N18G25  30.03R
#DONALD 2NE     N/A         72  13  10  NW13    28.86R
#GRANDVIEW      N/A         69  52  55  CALM    29.98R
#MABTON         N/A         74  51  44  CALM    29.97S
#MOXEE 2E       N/A         73  N/A N/A N20     29.93S
#NACHES 2SW     N/A         68  46  45  W12G25  30.02S
#OUTLOOK DOT    N/A         67  55  65  CALM    29.97R
#PARKER DOT     N/A         73  36  26  S5      30.00R
#TERRACE HTS    N/A         72  38  29  NW7     29.93R
#TOPPENISH      N/A         74  44  34  CALM    29.89R
#I82 S UMTANUM RN/A         71  37  29  NW10    N/A
#UNION GAP DOT  N/A         74  40  29  NW6     N/A
#W YAKIMA       N/A         67  45  45  NW2     29.98R
#WHITE SWAN 5E  N/A         72  46  39  CALM    29.96R
#WILEY CITY 3W  N/A         68  37  32  CALM    30.00R
#ZILLAH DOT     N/A         71  43  36  N5      N/A
$$

WAZ028-200510-
LOWER COLUMBIA BASIN...WASHINGTON

CITY            SKY/WX      TMP DP  RH  WIND    PRES   REMARKS
PASCO           PTCLDY      78  47  34  S7      29.98R
PROSSER AWOS    N/A         68  52  57  N6      30.02R
RICHLAND AWOS   PTCLDY      72  48  43  CALM    29.99R
#BENTON CITY    N/A         72  49  44  CALM    29.86S
#CONNELL 5N     N/A         68  46  45  SW1     29.96R
#CONNELL 5NW    N/A         66  52  61  CALM    29.91R
#ELTOPIA 6NW    N/A         72  51  48  CALM    28.97R
#KAHLOTUS       N/A         73  39  29  CALM    29.95R
#KENNEWICK 3S   N/A         70  46  42  SE1     29.96R
#PATERSON       N/A         73  53  49  CALM    29.94R
#PROSSER DOT    N/A         74  47  38  CALM    30.00R
#SAGEMOOR 2W    N/A         70  50  49  CALM    29.82R
#TOUCHET 2S     N/A         64  48  56  CALM    29.94S
#WEST PASCO     N/A         72  51  48  SE1     29.96S
$$

WAZ029-200510-
FOOTHILLS OF THE BLUES...WASHINGTON

CITY            SKY/WX      TMP DP  RH  WIND    PRES   REMARKS
WALLA WALLA AP  PTCLDY      73  46  38  SE8     30.02R
#CLYDE 6NW      N/A         66  41  40  CALM    29.95R
#DAYTON SCHOOL  N/A         66  39  37  E2      30.04R
#DELANEY DOT    N/A         71  34  26  SE1     30.01S
#LOWDEN 2SE     N/A         67  48  50  E1      29.95R
#PLEASANT VIEW 1N/A         68  41  37  SW5     29.98S
#PRESCOTT       N/A         63  48  58  CALM    29.95R
#WHITMAN COLLEGEN/A         72  49  44  CALM    30.01R
#WAITSBURG 5S   N/A         66  43  43  CALM    30.06R
#WAITSBURG 6SSE N/A         63  43  48  E5      30.03R
#WAITSBURG 8N   N/A         56  N/A N/A CALM    29.98S
#WALLA WALLA 5E N/A         64  45  50  NE2     N/A
#WHITMAN MISSIONN/A         68  52  57  CALM    29.98R
$$

WAZ030-200510-
BLUE MOUNTAINS...WASHINGTON

CITY            SKY/WX      TMP DP  RH  WIND    PRES   REMARKS
#DIXIE 5SE      N/A         66  43  43  SW2     30.02S
$$

ORZ009-041-WAZ024-200510-
COLUMBIA RIVER GORGE

CITY            SKY/WX      TMP DP  RH  WIND    PRES   REMARKS
HOOD RIVER AP   PTCLDY      70  52  53  CALM    30.06R
THE DALLES AP   CLEAR       76  52  43  NW12    30.00R
#CELILO DOT     N/A         77  54  45  SW9     N/A
#LYLE           N/A         75  56  52  NW10    30.01R
#MARYHILL       N/A         73  50  44  N13G24  29.87R
#MURDOCK        N/A         76  54  46  N16G26  29.95R
#RUFUS DOT      N/A         79  N/A N/A W16     N/A
#SMITHVILLE     N/A         75  53  46  N12     29.99R

$$

ORZ510-200510-
NORTH CENTRAL OREGON

CITY            SKY/WX      TMP DP  RH  WIND    PRES   REMARKS
#ANTELOPE       N/A         68  43  40  E3      29.83R
#CHENOWITH 1W   N/A         68  51  55  W25     N/A
#COW CYN RST AREN/A         67  40  37  NE3     N/A
#DUFUR          N/A         69  51  53  CALM    29.96R
#DUFUR 9E       N/A         66  49  54  W7      30.04R
#GRASS VALLEY 1SN/A         67  48  50  NW7     30.09R
#KENT DOT       N/A         65  37  35  NW7     N/A
#MAUPIN SCHOOL  N/A         75  50  41  CALM    30.07R
#SHANIKO 5WSW   N/A         67  37  33  N15     N/A
#SHANIKO 4NW    N/A         64  43  46  VRB12   30.11S
#TYGH VALLEY 2NEN/A         72  48  43  N10     29.96R
#WAPANITIA AIRPON/A         67  49  52  W3      29.99R
#WASCO 5NE      N/A         69  51  53  W8      29.97R
$$

ORZ511-200510-
CENTRAL OREGON

CITY            SKY/WX      TMP DP  RH  WIND    PRES   REMARKS
BEND AIRPORT    CLEAR       68  39  35  N7      30.13R
MADRAS AIRPORT  PTCLDY      64  43  46  NW12    30.11R
PRINEVILLE AP   CLEAR       66  41  40  N7      30.11R
REDMOND AIRPORT CLEAR       71  37  29  N12     30.10R SMOKE
#ASHWOOD SCHOOL N/A         70  39  32  CALM    30.03R
#BEND 1SW       N/A         60  40  47  CALM    N/A
#BEND-AWBREY    N/A         67  42  40  CALM    29.98R
#BEND-KIM LN    N/A         63  42  46  W1      29.93R
#CULVER         N/A         66  42  42  N3      29.89R
#CULVER 8W      N/A         70  31  23  NE1     30.09R
#LAKE BILLY CHINN/A         69  N/A N/A CALM    30.03R
#MADRAS 4S      N/A         68  14  12  N10     N/A
#POWELL BUTTE   N/A         68  45  44  CALM    30.07R
#PRINEVILLE     N/A         69  36  30  CALM    30.04R
#PRINEVILLE 3N  N/A         66  46  48  NW8     29.96R
#WARM SPRINGS   N/A         72  47  41  CALM    29.86R

$$


ORZ509-200510-
EAST SLOPES OF OREGON CASCADES

CITY            SKY/WX      TMP DP  RH  WIND    PRES   REMARKS
SISTERS AWOS    N/A         70  39  32  CALM    30.07R
#BLUE BOX PASS  N/A         54  N/A N/A W1      N/A
#CAMP SHERMAN   N/A         62  40  44  CALM    30.06S
#LA PINE 4NW    N/A         61  41  48  CALM    30.02R
#LAVA BUTTE DOT N/A         62  36  38  CALM    N/A
#SISTERS ODOT   N/A         70  39  32  W2      N/A
#SISTERS 3N     N/A         62  36  38  CALM    30.11R
#SUNRIVER       N/A         62  41  46  CALM    30.19R
#TUMALO 3W      N/A         68  41  37  CALM    29.85R
#WANOGA BUTTE D N/A         57  35  43  NE3     N/A

$$

ORZ044-200510-
LOWER COLUMBIA BASIN...OREGON

CITY            SKY/WX      TMP DP  RH  WIND    PRES   REMARKS
HERMISTON       PTCLDY      71  49  46  E5      29.99R
#BOARDMAN SCHOOLN/A         72  52  49  SE1     29.96R
#BOARDMAN 8SW   N/A         72  48  43  E3      29.97R
#ECHO 8SW       N/A         69  48  47  CALM    30.00R
#I-84 EX 198 DOTN/A         75  49  40  CALM    N/A
#IONE SCHOOL    N/A         73  44  35  CALM    29.97R
#UMATILLA       N/A         74  48  40  CALM    29.89R
$$

ORZ507-200510-
NORTHERN FOOTHILLS OF THE BLUES

CITY            SKY/WX      TMP DP  RH  WIND    PRES   REMARKS
PENDLETON AIRPT PTCLDY      65  36  34  E12     30.03R
#ADAMS 3WNW     N/A         63  38  39  NE1     29.96R
#CAYUSE         N/A         68  45  44  E3      29.96R
#HELIX SCHOOL   N/A         66  40  38  CALM    29.98R
#HELIX 3N       N/A         66  38  36  N1      30.02R
#HOLDMAN 5SE    N/A         68  40  36  CALM    30.02R
#HOLDMAN 6E     N/A         69  41  36  N5      29.78R
#M-F GROVE ELEM N/A         65  41  41  CALM    30.00R
#M-FREEWATER 5SEN/A         63  47  56  CALM    30.02R
#PENDLETON DNTN N/A         71  38  30  CALM    30.01R
#PDT AQUATIC CTRN/A         70  39  32  CALM    30.02R
#PDT SUNRIDGE   N/A         67  41  39  CALM    30.03R
#PENDLETON 7NW  N/A         70  43  38  CALM    28.56R
#PILOT ROCK 1S  N/A         65  39  38  CALM    30.06R
#PILOT ROCK     N/A         64  40  41  CALM    29.97R
#TUTUILLA       N/A         64  43  46  CALM    30.06R
#UMAPINE 2E     N/A         62  52  70  CALM    29.97R
#WESTON SCHOOL  N/A         63  41  44  CALM    29.94R

$$

ORZ508-200510-
SOUTHERN FOOTHILLS OF THE BLUES

CITY            SKY/WX      TMP DP  RH  WIND    PRES   REMARKS
LEXINGTON       PTCLDY      68  39  35  E10     30.06R
#AJAX           N/A         69  43  39  S2      30.21R
#HEPPNER EOC    N/A         69  42  37  SE1     29.91R
#HEPPNER 4NE    N/A         61  40  46  E6      29.98R
#LEXINGTON 2SE  N/A         70  42  36  E1      29.98R
#MIKKALO        N/A         71  46  41  W3      30.16R
#OLEX 4N        N/A         71  49  46  CALM    30.00R
#RUGGS 5NE      N/A         65  38  37  E2      30.30R
#RUGGS 2SW      N/A         66  40  38  S1      30.00R

$$

ORZ502-503-200510-
BLUE MOUNTAINS

CITY            SKY/WX      TMP DP  RH  WIND    PRES   REMARKS
MEACHAM         PTCLDY      55  36  49  CALM    30.14R
#BATTLE MTN DOT N/A         58  34  40  NW8     N/A
#GRANITE        N/A         57  37  47  CALM    29.85R
#HEPPNER 15SE   N/A         54  39  57  CALM    29.91R
#LADD CYN SMT   N/A         66  42  42  NW8     N/A
#LADD CREEK ODOTN/A         68  44  42  NE2     N/A
#LONG CREEK HS  N/A         63  38  39  CALM    N/A
#N POWDER DOT   N/A         65  45  48  N12     N/A
#PIKES PEAK     N/A         64  43  46  CALM    27.99S
#SUMMERVILLE 5NWN/A         61  38  42  W1      30.07R
#TOLLGATE       N/A         50  40  68  CALM    30.01S
#TROY SCHOOL    N/A         71  47  42  CALM    29.80R
#UKIAH          N/A         60  40  47  CALM    29.91R
#WESTON 4E      N/A         62  42  48  CALM    29.96R
$$

ORZ505-200510-
JOHN DAY BASIN

CITY            SKY/WX      TMP DP  RH  WIND    PRES   REMARKS
JOHN DAY        CLEAR       66  38  36  CALM    30.11R
#ANTELOPE 9ESE  N/A         77  39  25  CALM    N/A
#DAYVILLE SCHOOLN/A         72  36  27  CALM    30.02R
#MITCHELL       N/A         66  45  47  CALM    30.25R
#MITCHELL 8NW   N/A         68  37  32  CALM    30.01R
#MONUMENT HS    N/A         73  39  29  S1      30.00R
#MT. VERNON 5SE N/A         66  38  36  W1      30.07R
#SPRAY SCHOOL   N/A         67  N/A N/A CALM    N/A
$$

ORZ506-200510-
OCHOCO AND JOHN DAY HIGHLANDS

CITY            SKY/WX      TMP DP  RH  WIND    PRES   REMARKS
#HORSE RIDGE DO N/A         65  31  28  CALM    N/A
#PAULINA ODOT   N/A         70  37  30  N3      N/A
#PINE MTN OBS   N/A         57  35  43  NW6     N/A
#SENECA         N/A         63  N/A N/A CALM    N/A
#SENECA 9NW     N/A         61  38  42  CALM    29.93R
$$

ORZ049-200510-
GRANDE RONDE VALLEY

CITY            SKY/WX      TMP DP  RH  WIND    PRES   REMARKS
#COVE           N/A         60  47  62  NW1     30.10R
#COVE SCHOOL    N/A         59  44  57  CALM    30.09R
#COVE 6NW       N/A         64  42  45  CALM    29.95R
#ELGIN 3N       N/A         62  36  38  CALM    30.05R
#ELGIN 1E       N/A         67  39  36  CALM    N/A
#IMBLER SCHOOL  N/A         65  39  38  CALM    30.03R
#ISLAND CITY 4N N/A         66  55  68  N1      30.11S
#LA GRANDE-LEFFEN/A         64  41  43  E3      27.10R
#UNION 1S       N/A         62  45  54  CALM    29.95R
$$

ORZ050-200510-
WALLOWA COUNTY

CITY            SKY/WX      TMP DP  RH  WIND    PRES   REMARKS
JOSEPH AIRPORT  PTCLDY      55  39  55  CALM    30.15R
#ENTERPRISE HS  N/A         61  45  56  CALM    29.83R
#IMNAHA 10S     N/A         69  42  37  CALM    30.04R
#JOSEPH         N/A         59  43  55  CALM    30.02R
#JOSEPH 3N      N/A         56  38  51  CALM    30.14R
#JOSEPH 3W      N/A         54  44  69  SW3     30.00R
#LOSTINE        N/A         59  44  57  CALM    29.77R
#LOSTINE 3SE    N/A         62  42  48  CALM    30.15R
#MT HOWARD 8000 N/A         48  34  58  N3      30.31F
#PROMISE 1S     N/A         60  43  53  CALM    30.08R
#WALLOWA LAKE   N/A         55  43  64  CALM    30.17R
#WALLOWA SCHOOL N/A         67  44  43  CALM    30.03R



$$



USA.gov is the U.S. government's official web portal to all federal, state and local government web resources and services.